Weather History for Casper, WY

Change the Weather History Date:

Wednesday, March 6, 2013

  Actual Average Record
Temperature  
Mean Temperature 40 °F 32 °F  
Max Temperature 57 °F 45 °F 63 °F (2006)
Min Temperature 23 °F 20 °F -12 °F (1943)
Degree Days  
Heating Degree Days 25 33  
Month to date heating degree days 199 201  
Since 1 July heating degree days 5249 5649  
Cooling Degree Days 0 0  
Month to date cooling degree days 0 0  
Year to date cooling degree days 0 0  
Moisture  
Dew Point 15 °F    
Average Humidity 34    
Maximum Humidity 48    
Minimum Humidity 20    
Precipitation  
Precipitation 0.00 in 0.02 in 0.65 in (1990)
Month to date precipitation T 0.13  
Year to date precipitation 0.77 1.21  
Snow  
Snow 0.00 in 0.40 in - ()
Month to date snowfall 0.4 1.9  
Since 1 July snowfall 33.1 51.3  
Snow Depth 0.00 in    
Sea Level Pressure  
Sea Level Pressure 29.85 in    
Wind  
Wind Speed 16 mph (SW)    
Max Wind Speed 31 mph    
Max Gust Speed 39 mph    
Visibility 10 miles    
Events      
T = Trace of Precipitation, MM = Missing Value Source: NWS Daily Summary

Daily Weather History Graph

Daily Weather History Graph

Search for Another Location

Airport:

Trip Planner

Search our weather history database for the weather conditions in past years. The results will help you decide how hot, cold, wet, or windy it might be!

Date:

Astronomy

Mar. 06, 2013 Rise Set
Actual Time 6:32 AM MST 6:01 PM MST
Civil Twilight 6:04 AM MST 6:30 PM MST
Nautical Twilight 5:31 AM MST 7:02 PM MST
Astronomical Twilight 4:58 AM MST 7:36 PM MST
Moon 2:50 AM MST (3/6) 12:40 PM MST (3/6)
Length of Visible Light 12h 25m
Length of Day
11h 28m
Waning Crescent, 29% of the Moon is Illuminated
Mar 6
Waning Crescent
Mar 11
New
Mar 19
First Quarter
Mar 27
Full
Apr 2
Last Quarter

Hourly Weather History & Observations

Time (MST) Temp. Windchill Dew Point Humidity Pressure Visibility Wind Dir Wind Speed Gust Speed Precip Events Conditions
12:53 AM 30.9 °F 24.3 °F 9.0 °F 40% 30.02 in 10.0 mi SW 6.9 mph - N/A   Clear
1:53 AM 36.0 °F 28.0 °F 9.0 °F 33% 29.99 in 10.0 mi SSW 11.5 mph - N/A   Clear
2:53 AM 35.1 °F 25.2 °F 9.0 °F 34% 29.96 in 10.0 mi SSW 16.1 mph - N/A   Clear
3:53 AM 32.0 °F 24.2 °F 10.0 °F 40% 29.97 in 10.0 mi SW 9.2 mph - N/A   Clear
4:53 AM 28.9 °F 21.9 °F 10.0 °F 45% 29.99 in 10.0 mi WNW 6.9 mph - N/A   Clear
5:53 AM 32.0 °F 24.2 °F 10.9 °F 42% 29.98 in 10.0 mi WNW 9.2 mph - N/A   Clear
6:53 AM 32.0 °F 24.8 °F 12.0 °F 44% 29.98 in 10.0 mi WNW 8.1 mph - N/A   Clear
7:53 AM 39.0 °F 31.0 °F 12.9 °F 34% 29.95 in 10.0 mi SW 13.8 mph 19.6 mph N/A   Clear
8:53 AM 44.1 °F 36.2 °F 12.9 °F 28% 29.92 in 10.0 mi SW 18.4 mph 29.9 mph N/A   Clear
9:53 AM 48.0 °F - 12.9 °F 24% 29.91 in 10.0 mi SSW 23.0 mph 28.8 mph N/A   Clear
10:53 AM 50.0 °F - 12.9 °F 23% 29.90 in 10.0 mi SW 21.9 mph 28.8 mph N/A   Clear
11:53 AM 53.1 °F - 14.0 °F 21% 29.82 in 10.0 mi SSW 20.7 mph 33.4 mph N/A   Clear
12:53 PM 54.0 °F - 15.1 °F 22% 29.76 in 10.0 mi SW 21.9 mph 33.4 mph N/A   Clear
1:53 PM 55.0 °F - 16.0 °F 22% 29.73 in 10.0 mi SW 26.5 mph 34.5 mph N/A   Clear
2:53 PM 55.0 °F - 17.1 °F 23% 29.73 in 10.0 mi SSW 20.7 mph 29.9 mph N/A   Clear
3:53 PM 54.0 °F - 18.0 °F 24% 29.73 in 10.0 mi SSW 23.0 mph 32.2 mph N/A   Clear
4:53 PM 52.0 °F - 19.0 °F 27% 29.74 in 10.0 mi SW 19.6 mph 29.9 mph N/A   Clear
5:53 PM 48.0 °F - 18.0 °F 30% 29.75 in 10.0 mi SW 18.4 mph 26.5 mph N/A   Clear
6:53 PM 44.1 °F 38.1 °F 19.0 °F 37% 29.78 in 10.0 mi SSW 11.5 mph - N/A   Clear
7:53 PM 46.0 °F 39.3 °F 19.0 °F 34% 29.75 in 10.0 mi WSW 16.1 mph 23.0 mph N/A   Clear
8:53 PM 45.0 °F 39.3 °F 19.0 °F 36% 29.74 in 10.0 mi WSW 11.5 mph - N/A   Clear
9:53 PM 42.1 °F 34.5 °F 19.0 °F 40% 29.74 in 10.0 mi SW 15.0 mph - N/A   Clear
10:53 PM 37.9 °F 30.5 °F 19.0 °F 47% 29.75 in 10.0 mi West 11.5 mph - N/A   Clear
11:53 PM 37.0 °F 29.8 °F 19.9 °F 50% 29.74 in 10.0 mi WSW 10.4 mph - N/A   Clear